Regional Weather Roundup
Issued by NWS

Home | Current Version | Previous Version | Graphics & Text | Print | Product List | Glossary On
Versions: 1 2 3 4 5 6 7 8 9 10 11 12 13 14 15 16 17 18 19 20 21 22 23 24 25 26 27 28 29 30 31 32 33 34 35 36 37 38 39 40 41 42 43 44 45 46 47 48 49 50
000
ASUS43 KLSX 250159
RWRMO

WEATHER SUMMARY FOR MISSOURI
NATIONAL WEATHER SERVICE SPRINGFIELD MO
800 PM CST SAT JAN 24 2015

NOTE: "FAIR" INDICATES FEW OR NO CLOUDS BELOW 12,000 FEET WITH NO
       SIGNIFICANT WEATHER AND/OR OBSTRUCTIONS TO VISIBILITY.
       CURRENT SKY AND/OR WEATHER CONDITIONS ARE NOT AVAILABLE FOR
       CHILLICOTHE AND FARMINGTON.

MOZ001>031-035>038-043-044-053-054-250300-
...NORTHERN AND WESTERN MISSOURI...

CITY           SKY/WX    TMP DP  RH WIND       PRES   REMARKS
KANSAS CTY INT CLOUDY    50  29  44 SW10      29.70F
KANSAS C DTWN  CLOUDY    55  28  35 SW10      29.70F
LEE`S SUMMIT   CLOUDY    53  28  38 SW14      29.72F
ST JOSEPH      CLOUDY    45  29  53 S3        29.70F
CHILLICOTHE      N/A     50  30  46 SW3       29.70F
KIRKSVILLE     CLOUDY    48  31  51 SW8       29.67F

$$
MOZ066>068-077>081-088>096-101>105-250300-
...SOUTHWEST MISSOURI...

CITY           SKY/WX    TMP DP  RH WIND       PRES   REMARKS
SPRINGFIELD    MOCLDY    47  31  53 SW12      29.83F
JOPLIN         CLOUDY    50  31  48 S9        29.84F

$$
MOZ032>034-039>042-045>050-055>058-069>072-250300-
...CENTRAL MISSOURI...

CITY           SKY/WX    TMP DP  RH WIND       PRES   REMARKS
COLUMBIA       CLOUDY    48  32  53 SW12      29.74F
JEFFERSON CITY CLOUDY    52  31  44 SW8       29.76F
ROLLA          MOCLDY    45  31  58 SW9       29.77S
SEDALIA        CLOUDY    50  32  50 SW12      29.75F
OSAGE BEACH    MOCLDY    52  30  43 SW10      29.78F

$$
MOZ051-052-059>065-250300-
...EAST CENTRAL MISSOURI...

CITY           SKY/WX    TMP DP  RH WIND       PRES   REMARKS
ST LOUIS INTL  CLOUDY    49  31  49 SW9       29.77R
SPIRIT OF STL  CLOUDY    50  31  48 SW9       29.75F
ST CHARLES     CLOUDY    37  32  82 CALM      29.75S

$$
MOZ072>076-082>087-097>100-106>115-250300-
...SOUTH CENTRAL AND SOUTHEAST MISSOURI...

CITY           SKY/WX    TMP DP  RH WIND       PRES   REMARKS
CAPE GIRARDEAU PTCLDY    45  34  65 SW3       29.84S
FARMINGTON     MOCLDY    48  28  46 MISG      29.83S
POPLAR BLUFF   CLEAR     42  32  67 SW8       29.85S
WEST PLAINS    MOCLDY    46  29  51 SW7       29.85S

$$



USA.gov is the U.S. government's official web portal to all federal, state and local government web resources and services.